Theta_e
287 287 287 286 286 285 285 285 285 285 285 285 284 284 284 284 283 283 283 283 283 283 282 282 282 282 282 282 282 282 282 282 282 282 282 282 282 283 283 283 283 284 284 284 284 284 285 285 285 285 284 284 284 284 284 284 284 284 284 284 284 284 284 284 284 284 284 284 284
287 286 286 285 285 285 285 285 285 284 284 284 284 284 284 283 283 283 283 282 282 282 282 282 282 282 282 282 282 282 282 282 282 282 282 282 282 282 282 283 283 283 283 283 284 284 284 284 284 284 284 284 284 283 283 283 283 283 283 283 283 284 284 284 283 283 283 284 284
287 286 286 286 285 285 284 284 284 284 284 284 284 283 283 283 283 282 282 282 282 282 282 282 282 282 282 282 282 282 282 282 282 282 282 282 282 282 282 282 282 282 282 283 283 283 283 283 283 283 283 283 283 282 282 282 282 282 282 282 283 283 283 283 283 283 283 283 283
287 286 286 286 285 285 284 284 283 283 283 283 283 283 283 283 283 282 282 282 283 282 282 282 283 283 282 282 282 282 282 282 282 282 281 281 281 281 281 281 281 281 282 282 282 282 282 283 283 282 282 283 282 282 281 282 282 282 282 282 282 282 282 282 282 282 283 283 283
286 286 286 285 285 285 284 284 283 283 283 283 283 283 283 283 283 283 283 282 282 282 282 283 283 283 282 282 281 281 281 281 281 281 281 281 280 281 281 281 281 281 281 281 281 281 282 282 282 282 282 282 282 281 281 281 281 282 282 282 282 282 282 282 282 282 282 282 282
285 285 285 285 285 284 284 284 284 284 284 284 283 283 283 283 283 282 282 282 282 282 282 282 282 282 281 281 281 281 281 281 281 281 281 280 280 280 280 280 280 280 281 281 281 281 282 282 282 282 281 282 282 281 281 281 281 281 281 281 282 282 282 281 281 282 282 281 281
284 284 285 285 284 284 284 284 284 284 284 284 283 283 282 282 282 282 282 282 281 281 281 281 281 281 281 281 281 280 280 280 280 280 280 280 280 280 280 280 280 280 280 280 281 281 281 282 281 281 281 281 281 281 281 281 281 281 281 281 281 281 281 282 281 281 281 281 281
284 284 284 284 284 284 284 284 284 283 283 283 283 282 282 282 282 282 281 281 281 281 281 281 280 280 280 280 280 280 280 280 280 280 280 280 280 280 280 280 280 280 280 280 280 281 281 281 281 280 280 280 280 280 280 280 280 280 281 281 281 281 281 282 282 281 281 281 281
284 284 284 284 284 284 284 284 283 283 283 282 282 282 282 282 281 281 281 281 280 280 280 280 280 280 280 280 280 280 280 280 280 280 280 280 280 280 280 280 280 280 280 280 280 280 280 280 280 280 280 280 280 280 280 280 280 280 280 280 280 281 281 281 281 281 280 280 280
283 283 283 283 283 283 283 283 283 283 282 282 281 281 281 281 281 281 280 280 280 280 280 280 280 280 280 280 280 280 280 280 280 280 280 280 280 280 280 279 279 279 279 279 279 279 280 280 280 280 280 279 279 280 280 280 279 279 279 280 280 280 280 280 280 280 280 280 280
282 282 282 282 282 282 282 282 282 282 282 281 281 281 281 280 280 280 280 280 280 279 279 280 280 280 280 280 280 280 279 279 280 279 279 279 279 279 279 279 279 279 279 279 279 279 279 279 279 279 279 279 279 279 279 279 279 279 279 279 279 279 279 280 280 280 280 280 280
282 282 282 282 282 282 282 282 281 281 281 281 281 280 280 280 280 280 280 280 279 279 279 279 279 279 279 279 279 279 279 279 279 279 279 278 278 278 278 278 278 278 278 278 278 278 278 278 278 278 278 278 279 279 279 278 278 278 279 279 279 279 279 279 279 279 279 279 279
282 282 282 282 282 282 281 281 281 281 280 280 280 280 279 279 279 279 279 279 279 278 278 278 279 279 279 279 279 278 278 278 278 278 278 278 278 278 278 278 277 278 278 277 277 277 277 278 278 277 277 278 278 278 278 278 278 278 278 278 278 278 278 278 279 279 279 279 278
282 281 281 281 281 281 281 281 280 280 280 279 279 279 279 278 278 278 279 279 278 278 278 278 278 278 278 278 278 278 278 278 278 277 277 277 277 277 277 277 277 277 277 277 277 277 277 277 277 277 277 277 277 277 277 278 277 277 277 278 278 278 278 278 278 278 278 278 278
281 281 281 281 281 281 280 280 280 279 279 279 279 278 278 278 278 278 278 278 278 278 278 278 277 277 277 277 277 277 277 277 277 277 277 277 276 276 276 276 276 276 276 276 276 276 276 276 276 276 276 276 277 277 277 277 277 277 277 277 277 277 277 278 278 278 277 277 277
281 281 280 280 280 280 280 280 279 279 278 278 278 278 278 277 277 277 277 277 277 277 277 277 277 277 276 276 276 276 276 276 276 276 276 276 276 275 275 275 275 275 275 275 275 276 276 276 276 276 276 276 276 277 277 277 277 277 277 277 277 277 277 277 277 277 277 276 276
280 280 280 280 280 280 280 279 279 278 278 278 277 277 277 277 277 277 277 277 277 277 277 276 276 276 276 276 276 276 276 276 276 276 275 275 275 274 274 274 274 274 274 275 275 275 275 275 275 276 276 276 276 277 277 277 277 277 277 277 277 277 277 277 277 277 277 276 276
280 280 280 280 280 280 279 279 279 278 278 277 277 276 276 276 276 276 276 276 276 276 276 276 276 276 276 275 275 275 275 275 275 275 274 274 274 274 274 274 274 274 274 274 274 274 275 275 275 275 276 276 276 277 277 277 277 277 277 277 277 277 277 277 277 277 277 276 276
279 279 279 279 279 279 279 279 278 278 277 277 276 276 275 275 275 275 275 275 275 275 275 275 275 275 275 275 275 275 274 274 274 274 274 274 273 273 273 273 273 273 273 273 273 274 274 274 275 275 276 276 277 277 277 277 277 277 277 277 277 277 277 277 277 277 277 276 276
279 279 279 279 279 279 278 278 277 277 276 276 275 275 274 274 274 275 275 274 274 274 274 274 274 274 274 274 274 274 274 274 273 273 273 273 273 273 273 272 273 273 273 273 273 273 274 274 275 275 276 276 277 277 277 277 277 277 277 277 277 277 277 277 277 277 276 276 276
279 279 279 279 279 278 278 277 277 276 275 275 275 274 274 274 274 274 274 274 274 273 273 274 273 273 273 273 273 273 273 273 273 273 273 272 272 272 272 272 272 272 273 273 273 273 274 274 275 276 276 277 277 277 277 277 277 277 277 277 277 277 277 277 277 276 276 276 276
279 279 279 279 278 278 277 276 276 275 275 274 274 274 273 273 273 273 273 273 273 273 273 273 273 273 273 272 272 272 272 272 272 272 272 272 272 271 271 271 272 272 272 272 272 273 274 275 276 277 277 278 278 278 277 277 277 277 277 277 277 277 277 277 276 276 276 276 275
280 279 278 278 277 276 276 275 275 274 274 273 273 272 272 272 272 272 272 272 272 272 272 273 273 272 272 272 272 272 272 272 272 271 271 271 271 271 271 271 271 271 271 272 272 273 275 276 277 278 278 278 278 278 277 277 277 277 276 276 276 276 276 276 276 276 276 275 275
279 278 277 277 276 275 275 274 274 273 273 272 272 271 270 270 270 270 270 270 271 271 272 272 272 271 271 271 271 271 271 271 271 271 271 270 270 270 270 271 271 271 271 272 272 273 275 276 277 277 278 278 278 277 277 277 277 276 276 276 276 276 276 275 275 275 275 275 275
278 277 276 275 275 274 274 273 273 272 272 271 270 269 268 267 267 267 267 267 267 268 269 270 270 270 270 270 269 269 269 270 271 270 270 270 270 270 270 270 271 271 271 271 272 273 274 276 276 277 277 277 277 276 276 276 276 276 276 276 275 275 275 275 275 275 275 275 275
277 276 275 274 274 273 273 272 272 271 270 270 269 268 267 266 266 265 265 266 266 267 267 268 268 269 269 269 269 268 269 270 270 270 270 270 269 269 270 270 270 271 271 270 271 273 275 276 277 277 276 277 276 276 276 276 276 276 276 275 275 275 274 274 274 274 275 275 274
276 274 273 273 272 272 271 271 270 269 268 267 267 266 266 265 265 265 265 265 266 266 266 267 268 269 269 269 269 269 269 270 270 269 269 269 269 269 269 270 270 270 270 270 272 273 275 276 277 277 277 277 276 276 275 276 275 275 275 275 275 275 274 274 274 274 274 274 274
274 273 272 271 271 270 270 269 268 267 267 266 266 265 265 264 264 264 264 265 265 265 265 266 268 269 270 270 269 269 269 269 269 269 269 269 268 268 269 269 269 269 270 270 272 274 275 276 276 277 277 276 276 276 275 275 275 275 275 275 275 274 274 274 273 273 273 273 273
274 273 271 270 270 269 269 268 267 267 266 265 265 265 264 264 263 264 264 264 264 265 267 268 269 269 269 270 269 269 269 269 269 269 268 268 268 268 268 269 269 269 269 271 272 274 275 275 276 276 277 277 276 276 276 275 275 275 275 275 274 274 274 273 273 273 272 272 272
273 272 270 270 269 269 268 267 267 266 265 265 264 263 263 263 263 263 263 263 264 266 269 269 269 269 269 269 269 269 269 268 268 268 268 267 267 268 268 268 268 268 269 270 272 273 274 275 276 276 276 277 276 275 275 275 275 274 274 274 274 274 273 273 272 272 272 272 271
272 271 270 269 269 268 267 267 266 265 265 264 263 263 262 262 263 263 264 264 266 268 269 268 268 268 268 268 268 268 268 268 268 268 267 267 267 267 267 268 268 268 268 270 272 273 274 275 275 275 276 276 276 275 275 275 274 274 274 273 273 273 273 272 272 272 272 271 271
271 270 270 269 268 268 267 266 265 264 264 263 262 262 262 262 264 265 266 267 267 268 268 267 267 267 267 267 268 268 267 267 267 266 266 266 266 266 266 267 267 267 268 270 272 273 274 274 275 275 276 276 275 275 274 274 274 273 273 273 273 273 272 272 272 272 271 271 271
270 270 269 269 268 267 266 265 264 263 263 262 262 262 262 263 265 266 267 267 267 267 267 267 267 267 267 267 267 267 267 266 266 266 265 265 265 265 266 266 267 267 269 270 272 273 273 274 274 275 275 276 275 274 274 274 273 273 273 273 273 273 272 272 272 272 271 271 271
269 269 268 268 267 266 265 264 263 262 262 262 261 262 262 263 265 265 266 266 267 267 267 268 267 267 267 267 267 267 266 265 265 265 264 265 265 265 265 266 266 267 269 270 271 272 273 273 274 275 275 275 274 274 274 273 273 273 272 272 272 272 272 272 272 272 272 272 271
269 268 268 267 267 266 264 263 262 262 262 261 261 262 262 264 264 265 266 267 267 267 267 267 267 267 267 266 266 266 265 263 263 263 263 264 264 264 265 266 266 267 269 270 271 272 272 273 274 274 275 274 274 273 273 273 272 272 272 272 272 272 272 272 272 272 272 272 272
269 268 267 267 266 265 264 263 262 261 261 261 262 262 263 264 265 266 267 267 267 267 266 266 266 266 266 265 265 264 264 263 262 262 262 262 263 263 264 265 266 267 268 269 270 271 272 273 273 274 274 274 273 273 272 272 272 272 272 272 272 272 272 272 272 272 272 272 272
269 268 267 267 266 264 263 262 261 261 261 262 263 263 264 265 266 266 266 266 266 266 266 266 266 266 266 265 265 265 265 264 263 262 262 261 262 262 264 265 265 266 267 268 270 270 271 272 273 274 274 273 273 272 272 272 272 272 272 271 272 272 272 272 272 272 272 272 272
269 268 267 266 265 264 263 262 261 261 262 262 264 265 265 265 266 266 266 265 266 266 266 266 266 266 265 265 265 264 264 264 263 263 262 261 262 262 263 264 265 265 266 268 269 270 271 272 273 273 273 272 272 272 272 271 271 271 271 271 272 272 272 272 272 272 272 272 272
268 267 267 266 265 264 263 262 262 262 263 263 265 265 265 266 266 266 265 265 266 266 266 266 266 265 265 264 264 264 263 263 263 263 262 261 261 262 262 263 264 265 266 267 269 270 271 272 272 273 273 272 272 272 272 271 271 271 271 271 271 272 272 272 272 272 272 272 272
268 266 266 265 265 264 263 262 262 263 264 265 265 265 265 265 266 266 265 265 265 265 265 266 265 265 264 264 264 264 263 263 264 263 262 262 261 261 261 262 263 264 265 267 268 269 270 271 272 273 273 272 272 272 272 271 271 271 271 271 271 271 271 272 272 272 272 272 273
266 265 264 264 264 263 263 262 263 263 264 265 264 264 265 265 265 265 265 265 265 265 265 265 264 264 264 263 264 263 263 263 264 263 263 262 262 261 262 262 263 264 265 266 268 269 270 271 272 272 273 272 272 272 272 271 271 271 270 271 271 271 271 271 272 272 272 272 273
Wind_Speed
9 8 7 7 6 6 6 6 5 5 5 5 5 5 5 5 5 5 4 4 4 4 4 4 4 4 4 4 5 5 6 6 6 6 6 6 6 6 6 6 6 6 6 6 6 5 5 5 4 4 3 3 4 4 4 4 4 4 4 4 4 4 4 5 5 5 6 6 5
10 9 8 7 7 6 6 6 5 5 5 5 5 5 5 5 5 5 5 5 4 4 4 4 4 4 4 4 4 5 5 5 5 6 6 6 6 6 6 6 7 6 6 6 6 5 4 5 4 4 3 3 3 4 4 4 4 4 4 4 4 3 4 4 4 5 5 5 5
9 9 9 8 8 7 6 6 6 6 6 5 5 5 5 5 5 5 4 4 4 4 4 4 4 4 4 4 4 4 4 5 5 5 6 6 6 6 6 6 6 6 6 5 5 4 4 4 4 3 3 3 3 4 4 4 3 3 4 4 3 3 3 3 4 4 4 4 5
9 9 9 9 9 9 8 7 7 7 7 5 5 5 5 5 5 5 5 5 5 4 4 4 4 4 4 4 4 4 4 4 5 5 5 5 5 5 5 5 5 5 5 5 5 4 4 3 3 3 3 3 4 4 3 3 3 3 3 3 3 3 3 3 3 3 3 3 4
9 8 8 8 9 9 8 8 8 8 6 5 5 5 5 4 4 4 5 4 4 4 4 4 4 3 3 4 4 5 5 4 4 4 4 5 5 4 4 5 5 4 4 4 4 4 3 3 2 2 2 3 3 3 3 4 4 3 2 2 2 2 3 3 3 3 3 3 4
9 8 8 8 9 9 8 8 8 8 6 5 6 6 5 4 4 4 5 5 5 5 5 5 4 4 4 4 4 4 4 4 3 4 4 4 4 4 4 4 4 4 4 4 4 3 3 3 2 2 2 2 2 3 4 4 4 3 3 2 2 2 3 3 3 3 3 4 5
9 9 9 9 9 9 8 8 8 7 6 6 7 7 6 5 5 6 6 5 5 5 4 3 3 3 3 3 3 3 3 3 3 3 4 4 4 4 4 4 4 4 4 4 4 4 3 3 3 2 2 2 2 3 4 4 4 4 3 3 2 2 3 3 3 3 4 5 6
9 9 9 9 9 9 9 9 8 7 6 6 7 7 7 7 7 6 6 5 5 4 4 3 3 3 3 3 3 3 3 3 3 3 3 3 4 4 4 4 4 4 4 4 4 4 3 3 3 3 3 2 2 3 4 5 5 4 4 3 3 3 3 3 3 4 4 6 6
9 9 8 8 8 9 9 9 8 8 7 7 7 7 7 7 7 6 5 5 4 4 4 3 4 3 3 3 3 3 3 3 3 3 4 4 4 4 4 4 4 4 4 4 4 4 4 3 3 3 3 2 2 3 4 5 5 5 4 4 3 4 4 3 4 5 5 6 6
9 8 8 8 8 8 8 8 8 8 9 8 8 8 7 6 6 5 5 4 4 4 4 4 4 4 3 3 3 3 2 3 3 3 3 3 4 4 4 4 4 4 4 4 4 4 4 3 3 3 3 2 3 3 3 4 4 5 4 3 4 5 5 5 5 6 6 6 6
9 9 8 8 8 8 8 8 8 8 8 8 8 7 6 6 5 4 4 4 4 5 4 4 4 4 3 3 3 3 2 2 2 3 3 4 4 4 4 4 4 4 4 4 3 3 3 3 3 3 3 3 3 3 3 4 4 4 4 4 5 5 6 6 6 6 6 6 7
9 8 8 8 8 8 8 8 7 7 7 7 7 6 6 5 5 4 4 5 5 5 4 4 4 3 3 3 3 3 2 2 2 3 3 4 4 4 4 4 4 4 4 4 3 3 3 3 3 3 3 3 3 3 3 4 5 5 5 5 5 5 6 6 6 6 6 6 7
9 8 8 8 8 8 7 7 6 6 6 7 6 5 5 5 4 4 4 5 5 4 4 4 3 3 3 3 3 2 2 2 2 3 3 3 4 4 4 4 4 4 3 3 3 3 3 3 3 3 3 3 3 3 4 4 5 5 5 6 6 6 6 7 7 7 7 7 7
8 8 7 7 7 7 7 6 6 5 6 6 6 5 5 4 4 4 4 4 4 4 4 4 3 3 3 3 3 3 2 2 3 3 3 3 3 3 3 3 3 3 3 3 3 3 3 3 3 3 3 4 4 4 4 4 5 5 5 6 6 7 7 7 7 7 7 7 8
8 7 7 7 7 6 6 6 5 5 6 6 6 5 5 4 4 3 3 4 4 4 4 4 4 3 3 3 3 3 3 2 3 3 3 3 3 3 3 3 3 3 3 3 2 2 2 3 3 3 3 4 4 4 5 5 5 5 5 6 6 7 7 7 7 7 7 7 8
7 7 7 7 7 6 6 6 5 5 6 6 6 5 5 4 4 4 4 4 4 4 4 4 4 4 3 3 3 3 2 2 2 3 3 3 3 3 3 3 3 3 3 3 2 2 2 2 3 3 3 4 4 5 5 5 5 5 6 6 6 7 7 7 7 7 7 7 8
8 7 7 7 7 7 6 6 5 5 6 6 6 5 5 4 4 4 4 4 4 4 4 4 4 3 3 3 3 2 2 2 2 2 3 3 3 2 2 2 2 2 3 3 3 3 3 3 3 3 4 4 4 5 5 5 5 6 6 6 6 6 7 7 7 7 7 8 8
8 8 8 7 7 7 7 6 6 6 6 7 6 5 5 4 4 4 4 4 4 4 5 4 4 3 3 3 2 2 2 2 2 2 2 2 2 2 2 2 2 2 3 3 3 3 3 3 3 4 4 4 4 5 5 5 5 6 6 6 6 6 7 7 7 7 7 8 8
9 9 8 8 8 7 7 7 7 7 7 7 6 5 5 5 5 4 4 4 4 4 5 5 4 3 3 3 2 2 2 2 2 2 2 2 2 2 1 2 2 2 3 3 3 3 3 4 4 4 4 4 5 5 5 5 5 6 6 6 6 6 7 7 7 7 7 8 8
9 9 9 8 8 7 7 7 6 6 6 6 6 6 5 5 5 5 5 4 4 4 4 4 4 4 3 3 3 2 2 2 2 2 2 2 2 1 1 2 2 3 3 3 3 3 4 4 4 4 5 5 5 5 5 5 6 6 6 6 6 6 7 7 7 7 8 8 8
10 9 9 8 8 7 7 6 6 6 6 6 6 6 6 5 5 5 5 4 4 4 4 4 4 4 3 3 3 3 3 2 2 2 2 2 2 1 1 2 2 3 3 3 3 4 4 4 5 5 5 5 5 5 5 6 6 6 6 6 6 7 7 7 8 8 8 8 8
9 9 8 8 7 7 6 6 6 6 6 6 6 6 5 5 5 4 4 4 4 4 4 4 4 4 4 3 3 3 3 2 2 2 2 2 1 1 1 2 2 3 3 4 4 4 5 5 5 5 5 5 5 6 6 6 7 7 7 7 7 7 8 8 8 8 8 8 9
9 8 7 7 7 7 6 6 6 6 6 6 6 5 5 5 4 4 4 3 3 4 4 3 4 4 4 3 3 3 3 3 3 2 2 1 1 1 2 2 3 3 3 3 4 4 5 5 5 5 6 6 6 6 6 7 7 7 8 8 8 8 8 8 8 8 8 8 8
8 8 7 6 7 7 7 7 6 6 6 6 6 5 5 4 4 3 3 3 3 3 3 3 3 3 3 3 3 3 3 3 3 2 2 1 1 1 2 2 3 3 3 3 4 4 5 5 5 6 6 6 6 6 7 7 7 8 8 9 9 9 8 8 8 8 9 9 8
8 8 7 6 7 7 7 7 7 6 6 5 5 5 4 3 3 2 2 1 2 2 3 3 3 3 3 3 3 2 2 2 2 2 1 1 1 1 2 2 2 2 3 3 5 6 7 7 6 6 6 6 6 6 7 7 8 8 8 8 9 9 9 9 9 9 9 9 8
8 8 8 7 8 8 7 7 7 6 5 5 5 4 4 3 2 2 2 2 2 3 3 4 4 4 4 4 3 3 2 2 2 2 1 1 1 2 2 2 2 2 3 4 6 8 8 8 8 7 7 6 6 7 7 7 7 8 8 8 8 9 9 9 9 9 9 8 8
8 8 8 7 7 7 7 7 6 5 5 5 4 4 4 3 2 2 2 3 3 3 4 4 5 5 4 4 4 3 2 2 2 1 1 0 1 2 2 2 2 2 3 5 7 8 9 9 9 9 8 7 7 7 7 7 7 7 8 8 8 8 9 9 10 10 9 9 9
9 8 8 8 8 7 7 6 6 5 5 5 4 4 3 3 3 3 3 4 4 4 4 5 5 4 4 3 3 3 3 2 2 1 1 0 1 2 3 3 3 3 5 7 8 9 9 9 9 9 9 8 7 7 7 7 7 7 7 7 8 8 9 9 9 9 9 10 9
10 9 8 9 8 8 7 6 6 6 5 5 4 4 4 3 3 4 4 4 5 6 6 5 4 4 3 3 3 3 3 3 2 1 1 1 2 3 3 4 4 5 6 8 9 9 9 9 9 10 10 9 7 6 6 6 6 7 7 7 7 8 8 8 8 9 9 10 10
10 9 9 9 9 8 7 6 6 6 5 5 4 4 4 4 4 5 5 6 7 7 6 4 3 3 3 3 3 3 3 3 2 1 1 1 2 3 4 4 4 5 7 9 9 9 9 9 10 10 10 10 8 7 6 6 6 7 7 7 8 8 9 9 10 10 10 9 10
10 9 9 9 9 8 7 6 6 6 5 5 5 5 5 5 5 6 7 7 7 6 5 3 3 3 3 3 3 3 3 2 2 1 1 1 2 3 4 5 5 6 7 9 9 9 10 10 10 10 11 11 9 7 6 6 7 7 7 7 8 9 9 9 9 10 10 10 10
9 9 9 9 9 8 7 6 6 6 5 5 5 5 5 6 7 7 7 7 6 5 5 4 4 4 4 4 4 4 3 2 2 1 1 2 3 4 5 6 6 6 7 9 9 10 10 10 10 10 11 11 9 7 6 7 7 7 8 8 9 10 9 9 9 10 11 11 11
10 10 10 9 9 7 7 6 6 6 6 6 6 6 6 6 7 7 6 6 5 5 5 5 5 5 5 5 4 4 3 2 1 1 1 2 3 4 5 6 5 6 8 9 9 10 10 10 10 10 11 11 9 7 7 7 6 6 7 8 9 9 10 10 10 10 11 11 11
10 10 10 9 8 7 7 6 6 6 6 6 6 6 6 6 6 6 6 6 5 5 4 4 4 4 4 4 3 3 3 2 1 1 2 3 3 5 5 5 5 6 8 9 10 10 10 10 10 10 11 10 8 7 7 7 7 7 7 8 9 9 9 10 10 11 11 11 11
11 11 10 9 8 8 7 7 7 7 6 6 6 7 7 7 7 7 6 6 5 4 4 3 3 3 3 3 3 3 3 2 2 2 2 3 4 5 6 6 6 7 8 10 10 10 9 9 10 10 10 9 6 6 6 7 7 8 8 9 9 10 10 10 10 10 10 11 11
12 11 11 10 9 8 8 8 7 7 7 7 7 7 7 7 7 6 6 5 4 4 4 4 4 4 4 4 3 3 3 3 3 3 3 3 4 5 6 7 7 8 9 9 9 9 9 9 10 10 9 7 5 5 6 6 7 7 8 9 9 10 10 10 10 10 10 10 10
12 12 11 10 9 9 9 8 8 8 8 8 8 8 8 7 6 6 5 4 4 4 5 5 5 5 5 4 3 3 2 2 2 3 3 3 4 5 6 7 7 8 8 9 9 9 9 9 9 9 8 6 5 5 6 6 6 7 8 9 9 10 10 9 9 9 10 10 10
12 12 11 10 10 9 9 9 9 9 9 8 8 8 7 7 6 5 5 4 4 5 5 5 5 5 4 3 3 3 2 2 2 3 3 4 4 5 6 7 8 8 8 9 9 9 9 9 9 9 8 6 6 5 5 5 6 7 7 8 8 9 9 8 8 8 9 10 12
11 11 11 10 10 10 9 9 9 9 9 8 8 7 7 6 5 5 4 4 4 4 4 5 5 4 3 3 3 3 3 3 3 3 3 4 4 5 6 8 8 8 8 9 10 10 9 9 9 9 8 6 6 5 5 5 6 7 8 8 8 9 9 8 8 8 9 11 13
11 10 10 10 10 9 9 9 9 8 8 8 7 7 7 6 5 4 4 4 4 4 4 4 4 4 3 3 3 3 3 3 3 3 4 4 5 6 7 8 8 9 9 10 10 10 9 9 9 9 8 6 5 5 5 5 6 7 8 7 8 8 8 8 8 8 9 10 12
10 10 10 10 9 9 9 9 8 8 7 7 7 6 6 5 5 4 4 4 4 4 4 4 4 4 3 3 3 3 2 3 3 3 3 4 5 6 7 7 8 8 9 9 9 10 9 9 9 9 8 6 5 5 5 5 6 7 8 8 8 8 8 9 8 8 9 10 10
Wind_Direction
107 105 104 103 103 102 101 99 98 99 100 102 103 103 103 102 101 99 95 91 90 89 86 82 81 80 78 74 74 75 76 75 73 70 66 62 59 55 51 48 44 43 41 41 40 41 41 39 44 49 51 47 48 48 44 29 9 8 13 14 12 7 3 3 3 359 355 351 348
107 106 105 104 105 104 103 103 101 99 99 99 101 103 103 102 101 99 95 90 91 94 95 94 94 93 91 86 82 80 80 79 78 76 71 65 59 55 51 50 46 42 38 37 37 37 38 37 42 45 46 44 43 44 42 31 9 4 8 11 8 3 359 359 358 353 348 344 344
110 110 110 110 110 110 109 108 107 105 103 101 101 101 101 99 98 97 96 97 100 102 104 105 103 102 98 95 88 83 80 78 77 75 72 67 61 56 53 52 50 46 41 37 36 35 35 36 43 45 43 40 38 37 34 23 9 4 3 6 3 359 356 354 351 346 342 339 340
113 113 113 112 112 112 112 112 112 111 109 107 104 101 98 97 98 101 104 106 105 104 104 107 106 103 97 94 89 85 80 75 75 75 74 70 64 59 55 53 53 51 47 40 37 34 33 33 45 49 45 43 41 36 27 9 2 360 360 357 355 355 354 350 346 342 337 335 335
114 113 113 113 113 113 113 114 115 115 114 112 109 106 103 102 106 109 110 109 105 104 104 106 105 103 100 98 96 92 88 83 80 79 80 77 72 66 60 55 52 51 49 45 38 32 26 23 43 49 45 42 43 36 23 3 356 353 353 346 352 353 352 348 344 338 333 332 333
116 115 114 115 116 115 114 114 114 113 113 113 113 112 112 113 114 114 112 109 108 107 106 104 106 108 110 108 105 103 99 95 90 87 85 83 78 72 65 60 54 51 48 45 39 32 25 19 39 44 41 38 50 42 25 4 355 351 347 341 353 356 353 350 342 335 331 333 333
121 121 121 121 120 119 118 117 115 113 112 112 112 112 113 114 115 115 115 116 116 115 113 111 115 118 120 118 115 112 108 104 97 92 87 83 78 72 67 61 55 50 45 41 36 32 29 27 38 39 33 24 38 37 28 8 357 349 344 342 354 358 354 348 338 330 327 331 332
123 123 124 124 123 122 121 121 120 118 116 113 112 114 115 116 118 119 119 118 118 118 118 119 122 123 122 120 115 109 104 99 95 89 82 77 73 70 65 59 53 48 43 37 34 29 27 31 40 36 28 22 24 25 20 7 358 350 343 340 351 354 349 342 330 325 324 327 328
124 124 124 124 124 123 123 123 122 121 119 117 118 119 120 120 122 123 121 118 120 123 126 127 130 130 125 117 111 105 97 89 82 78 74 69 64 59 55 52 46 42 38 33 32 29 27 32 41 35 24 18 16 15 9 360 355 348 342 339 348 346 339 334 329 326 325 325 326
128 128 128 127 126 125 123 122 120 120 120 121 123 124 124 126 127 126 123 124 132 135 137 136 140 137 129 118 110 104 98 94 87 81 75 70 64 57 50 45 40 35 31 26 25 27 30 34 39 31 19 12 9 6 1 353 349 345 341 338 341 337 332 331 331 330 328 326 325
132 133 133 131 131 128 125 123 121 121 123 124 126 128 130 132 132 131 132 139 140 137 135 135 137 133 126 116 107 100 93 89 90 88 82 74 66 59 53 46 40 35 29 22 17 21 28 31 29 20 9 2 -0 359 356 349 343 339 336 335 333 329 328 331 332 329 326 324 322
135 135 135 134 135 132 129 126 124 125 126 128 130 132 134 136 138 142 145 148 140 134 129 128 126 123 117 111 107 101 95 89 89 88 83 75 66 61 55 48 41 35 29 23 17 18 23 24 15 7 1 355 354 354 351 343 337 333 331 330 328 327 327 329 329 326 323 322 320
137 137 138 139 139 136 133 128 128 129 132 133 135 136 138 140 147 152 154 150 139 132 128 124 120 115 111 109 108 104 100 97 91 86 81 75 68 61 54 48 39 33 27 24 19 16 12 13 5 359 353 348 347 345 343 337 332 329 327 327 327 326 325 324 324 322 321 320 317
140 142 143 145 146 142 138 134 134 137 139 140 142 142 143 146 154 160 159 149 139 133 130 127 120 112 107 109 110 108 104 100 93 87 82 77 68 60 53 46 36 28 22 18 15 9 4 359 355 350 345 341 338 336 333 329 327 324 322 323 323 321 320 320 320 320 319 318 315
146 148 151 154 154 151 146 143 143 144 147 147 147 148 149 151 158 161 157 146 140 135 132 127 120 114 111 112 112 112 109 103 97 92 86 80 70 61 52 43 33 24 15 8 2 359 356 348 343 338 334 330 328 326 325 323 320 317 316 317 316 315 315 316 317 318 317 315 312
154 158 162 165 165 161 156 153 151 151 152 152 153 154 155 155 158 159 157 149 143 135 128 125 125 125 124 120 118 116 112 107 101 95 88 82 71 60 50 39 28 16 6 355 347 344 342 336 332 327 323 319 317 317 317 317 314 312 312 311 310 311 311 312 314 314 313 312 309
164 168 173 177 176 172 167 162 158 156 156 155 157 159 160 159 158 158 156 151 142 133 128 128 129 131 132 131 129 126 121 114 106 99 91 83 73 62 48 33 18 4 352 342 335 332 329 327 322 316 312 309 308 309 311 311 310 310 309 308 307 307 307 309 311 310 310 308 306
174 177 182 186 184 180 174 168 162 159 157 156 159 160 160 157 154 151 148 145 137 132 131 130 130 130 131 132 134 132 128 123 115 106 99 91 80 65 46 24 4 348 337 328 322 319 317 316 312 307 303 302 302 303 305 306 307 307 307 306 306 305 306 307 309 309 308 307 305
180 184 187 191 188 184 178 172 165 160 157 156 157 157 155 153 150 146 141 136 132 132 132 132 132 131 130 132 136 138 137 133 126 119 111 102 88 68 39 10 348 335 326 318 310 307 306 306 304 302 300 299 300 301 303 304 305 305 305 304 304 304 305 307 308 307 305 304 303
185 188 190 192 188 184 179 173 166 161 157 156 155 153 151 150 147 141 135 131 130 131 133 135 136 137 138 142 148 152 152 147 138 130 119 107 87 59 26 355 337 326 318 310 303 301 300 299 299 297 296 296 299 301 304 304 304 305 304 302 303 303 305 306 306 304 302 301 301
190 191 191 190 186 183 178 173 166 162 159 157 155 153 149 146 140 134 129 128 130 133 137 142 143 147 152 159 162 165 163 155 144 133 120 103 82 50 9 340 327 319 312 306 301 299 298 297 297 296 295 296 298 302 305 307 306 305 304 302 303 303 304 305 304 302 301 300 300
192 191 189 186 183 181 177 173 168 165 161 158 154 149 143 137 130 125 124 127 135 142 149 153 155 161 166 171 171 170 167 156 143 129 112 92 71 34 355 328 316 310 306 302 297 296 296 296 297 298 299 299 301 304 307 307 306 305 304 304 304 304 304 303 301 300 298 298 297
190 187 185 182 180 179 178 176 173 168 163 158 151 144 136 128 125 125 129 137 149 157 162 165 166 169 173 177 176 173 165 153 138 122 102 79 50 9 335 313 304 300 298 296 296 298 301 302 304 305 306 306 307 308 308 307 306 305 305 305 305 305 303 301 299 297 296 295 294
185 183 180 179 180 181 182 181 177 172 164 156 147 138 129 124 122 124 131 144 160 169 174 176 173 172 173 177 177 172 161 145 129 116 102 81 32 340 313 296 291 291 292 293 298 305 309 311 312 312 312 312 311 309 308 306 304 303 304 305 305 304 303 299 297 295 294 293 293
182 181 181 181 183 185 186 185 180 173 163 152 141 132 124 120 117 119 129 155 181 190 190 186 183 181 180 178 173 166 154 134 117 107 96 72 6 319 299 285 287 289 292 292 297 303 307 309 311 312 313 311 309 307 304 301 299 300 301 303 304 303 301 298 296 294 293 293 294
182 183 185 186 187 189 189 187 180 169 157 144 136 131 128 128 128 138 158 179 191 197 198 195 193 190 187 178 168 162 153 134 115 103 87 43 332 304 292 287 294 296 294 291 296 300 304 306 308 308 307 306 305 303 301 298 298 298 299 300 299 298 298 297 297 297 296 296 297
183 186 189 190 191 192 191 186 175 161 149 139 137 137 138 140 145 161 180 191 193 201 208 210 202 195 187 174 162 155 150 140 129 122 109 356 311 299 294 291 288 287 287 289 295 299 304 308 307 307 305 304 303 302 300 298 298 298 297 297 295 294 294 295 297 299 301 301 302
186 188 189 191 195 195 191 181 169 159 151 146 145 145 146 149 164 181 193 198 199 204 210 214 208 201 189 171 157 150 148 145 147 151 163 255 287 288 287 286 282 280 284 290 297 301 304 307 306 307 306 305 302 298 295 295 297 297 296 294 293 293 295 296 300 302 304 305 304
187 187 188 194 196 194 188 178 169 161 155 150 148 148 153 165 183 195 201 202 207 209 209 205 204 199 187 167 155 154 156 158 166 175 196 252 277 282 284 287 287 287 290 295 299 302 304 306 306 306 306 306 304 300 298 296 297 297 296 295 296 297 299 301 302 303 303 304 303
187 187 191 197 197 193 186 178 169 160 153 148 149 154 164 180 194 201 206 208 213 214 212 201 196 188 177 163 160 161 164 162 169 181 211 258 276 282 284 287 289 291 292 295 298 301 304 306 306 306 306 307 304 300 297 296 297 297 297 297 298 299 300 301 301 301 301 301 301
186 189 194 199 197 193 185 175 165 158 153 152 156 164 176 189 200 204 207 208 213 213 209 195 187 182 177 170 167 166 165 162 171 187 227 265 281 286 287 288 288 287 288 291 295 299 303 306 307 306 306 306 304 300 297 295 295 295 295 296 297 299 299 299 299 298 298 298 299
187 191 195 200 199 193 182 170 163 158 157 159 165 174 186 197 204 207 208 208 209 207 200 190 187 187 185 179 174 169 166 165 177 202 247 273 282 286 286 286 284 283 285 289 295 300 304 306 307 306 306 307 306 302 298 293 292 292 292 291 292 294 295 296 296 295 295 296 297
188 192 197 201 198 190 178 168 164 163 164 168 175 183 192 203 208 210 212 213 208 204 199 193 193 194 192 183 176 170 166 167 183 223 264 277 282 284 285 284 283 282 285 291 297 301 305 307 306 306 306 309 307 302 295 291 290 290 289 289 290 291 292 292 292 293 294 295 294
190 194 198 201 196 187 177 170 168 168 171 175 183 189 196 204 208 210 212 214 209 205 202 200 200 200 196 186 177 168 163 169 197 241 269 279 282 282 282 280 275 278 284 292 299 303 305 306 306 307 308 310 307 300 294 294 290 288 288 289 290 291 292 291 290 290 290 289 288
190 194 198 200 194 186 178 173 172 173 176 181 188 193 198 203 206 207 208 207 205 203 203 204 206 204 199 189 180 171 168 177 208 242 266 279 282 282 280 278 275 279 286 294 299 302 304 305 306 308 310 311 306 300 296 294 291 289 289 290 291 291 290 289 288 287 285 284 283
191 194 196 197 192 186 181 176 175 178 182 187 190 194 198 202 204 205 203 200 200 201 202 203 206 206 202 191 185 182 183 187 204 226 247 266 276 279 280 280 280 284 290 295 299 301 303 304 306 309 311 312 306 299 295 293 291 291 291 291 290 290 289 288 286 284 282 281 280
193 194 195 194 191 187 184 179 179 182 187 191 191 192 195 198 200 200 198 196 201 204 205 205 208 207 204 195 190 190 192 198 210 225 238 250 263 273 279 281 283 287 291 294 297 299 302 303 306 308 310 310 303 297 294 292 292 292 292 291 290 290 290 289 286 284 282 280 278
194 194 194 193 191 188 186 183 184 187 189 191 191 190 190 191 193 193 194 198 205 208 209 210 211 209 205 199 194 195 203 220 225 234 241 248 257 268 277 282 284 286 289 292 295 298 300 302 304 306 308 305 300 297 293 292 291 291 291 292 291 292 293 291 290 287 284 281 279
191 191 192 192 191 189 187 188 190 190 189 188 187 187 186 187 188 186 187 198 210 214 215 215 213 208 204 204 204 203 208 223 227 233 239 247 253 263 272 279 282 285 287 290 293 296 298 299 301 303 304 302 297 294 291 290 289 289 290 291 293 294 294 293 291 288 286 284 281
186 187 189 192 191 189 189 191 193 192 188 184 182 182 183 185 184 180 181 194 211 219 222 221 217 212 209 210 213 213 218 231 230 231 236 245 254 260 266 272 277 281 284 288 291 293 295 296 298 300 301 298 293 289 287 287 287 289 291 292 294 295 295 293 291 289 287 286 284
179 181 186 190 190 190 190 193 193 191 187 182 180 179 179 178 177 178 182 194 206 214 220 222 218 216 215 220 222 219 224 243 243 240 240 248 256 260 262 265 271 275 280 283 287 289 291 293 295 297 298 294 290 286 284 285 287 289 291 293 294 294 294 293 291 289 287 286 285